Regional Weather Roundup
Issued by NWS

Home | Current Version | Previous Version | Graphics & Text | Print | Product List | Glossary On
Versions: 1 2 3 4 5 6 7 8 9 10 11 12 13 14 15 16 17 18 19 20 21 22 23 24 25 26 27 28 29 30 31 32 33 34 35 36 37 38 39 40 41 42 43 44 45 46 47 48 49 50
000
ASUS43 KOAX 260402
RWRNE

WEATHER ROUNDUP FOR NEBRASKA
NATIONAL WEATHER SERVICE OMAHA NE
1000 PM CST THU DEC 25 2014

NOTES: SATELLITE DATA IS BEING USED TO AUGMENT CLOUD COVER ABOVE
       12000 FEET.
       "FAIR" INDICATES FEW OR NO CLOUDS BELOW 12,000 FEET WITH NO
       SIGNIFICANT WEATHER AND/OR OBSTRUCTIONS TO VISIBILITY.

  * THESE STATIONS DO NOT REPORT WEATHER SUCH AS RAIN...SNOW OR FOG.

NEZ001>004-019>022-054>056-260500-
NEBRASKA PANHANDLE

CITY           SKY/WX    TMP DP  RH WIND       PRES   REMARKS
SCOTTSBLUFF    LGT SNOW  23  19  85 N10       29.89R FOG     WCI  12
ALLIANCE       LGT SNOW  22  20  92 N18       29.84S FOG     WCI   7
CHADRON        LGT SNOW  24  21  88 N13       29.94R FOG     WCI  12
KIMBALL        CLOUDY    21  19  93 N10       29.80R WCI   9
SIDNEY         MIX PCPN  22  18  85 N17       29.83R WCI   8
$$

NEZ057>060-069>072-079>082-260500-
SOUTHWEST NEBRASKA

CITY           SKY/WX    TMP DP  RH WIND       PRES   REMARKS
NORTH PLATTE   CLOUDY    28  24  85 N20G26    29.80R WCI  15
IMPERIAL       CLOUDY    28  24  85 N21       29.79R WCI  15
LEXINGTON      CLOUDY    32  28  86 N17G28    29.73S WCI  21
MCCOOK         CLOUDY    31  26  82 N14       29.77R WCI  21
OGALLALA       CLOUDY    27  24  89 N20G28    29.82R WCI  13
$$

NEZ005>010-023>029-035>040-094-260500-
NORTH CENTRAL NEBRASKA

CITY           SKY/WX    TMP DP  RH WIND       PRES   REMARKS
VALENTINE      LGT SNOW  26  22  84 N12       29.89R FOG     WCI  16
AINSWORTH      CLOUDY    24  23  93 N20G26    29.85R WCI  10
BROKEN BOW     MIX PCPN  29  25  85 N21G31    29.78R WCI  16
O`NEILL        CLOUDY    27  27  99 N17G26    29.82R FOG     WCI  15
ORD            CLOUDY    30  26  85 N18G28    29.77R WCI  18
$$

NEZ041-046>049-061>064-073>077-083>087-260500-
SOUTH CENTRAL NEBRASKA

CITY           SKY/WX    TMP DP  RH WIND       PRES   REMARKS
GRAND ISLAND   CLEAR     30  27  88 N14       29.73R WCI  19
AURORA         CLEAR     31  29  93 N15       29.72R WCI  20
HASTINGS       CLEAR     30  26  85 N16       29.71R WCI  19
HEBRON         CLEAR     31  26  83 CALM      29.68R
HOLDREGE       CLOUDY    31  28  90 N20       29.73R WCI  19
KEARNEY *      CLOUDY    30  27  86 NW25      29.73R WCI  16
YORK           CLEAR     32  30  93 N15       29.71R WCI  22
$$

NEZ011>018-030>034-042>045-260500-
NORTHEAST NEBRASKA

CITY           SKY/WX    TMP DP  RH WIND       PRES   REMARKS
NORFOLK        CLOUDY    33  30  88 N13       29.74S WCI  24
ALBION         CLOUDY    33  29  86 N14       29.75R WCI  23
BLAIR          MOCLDY    42  32  68 CALM      29.69S
COLUMBUS *     CLEAR     32  27  80 N14       29.74R WCI  22
FREMONT        PTCLDY    33  32  95 N6        29.72R WCI  28
TEKAMAH        CLEAR     34  31  88 N13       29.72R WCI  25
WAYNE          CLOUDY    33  31  94 N9        29.76R WCI  25
$$

NEZ050>053-065>068-078-088>093-260500-
SOUTHEAST NEBRASKA

CITY           SKY/WX    TMP DP  RH WIND       PRES   REMARKS
LINCOLN        PTCLDY    30  27  88 N7        29.70R WCI  23
OMAHA EPPLEY   MOCLDY    36  30  79 S3        29.72R
BEATRICE       MOCLDY    39  30  68 SE6       29.68R
FALLS CITY     PTCLDY    38  30  73 SE6       29.72R WCI  33
NEBRASKA CITY  MOCLDY    38  29  70 S9        29.71R WCI  32
PLATTSMOUTH    MOCLDY    39  31  73 SE9       29.70S WCI  32
$$

NEZ044-045-051>053-067-260500-
OMAHA AREA

CITY           SKY/WX    TMP DP  RH WIND       PRES   REMARKS
OMAHA EPPLEY   MOCLDY    36  30  79 S3        29.72R
BLAIR          MOCLDY    42  32  68 CALM      29.69S
FREMONT        PTCLDY    33  32  95 N6        29.72R WCI  28
MILLARD        MOCLDY    32  30  94 CALM      29.70R
OFFUTT AFB     MOCLDY    31  29  90 SE2       29.70R
PLATTSMOUTH    MOCLDY    39  31  73 SE9       29.70S WCI  32
WAHOO          FAIR      32  29  88 NW9       29.71R WCI  24
$$



USA.gov is the U.S. government's official web portal to all federal, state and local government web resources and services.